Weather Roundup
Issued by NWS Corpus Christi, TX

Home | Current Version | Previous Version | Text Only | Print | Product List | Glossary Off
Versions: 1 2 3 4 5 6 7 8 9 10 11 12 13 14 15 16 17 18 19 20 21 22 23 24 25 26 27 28 29 30 31 32 33 34 35 36 37 38 39 40 41 42 43 44 45 46 47 48 49 50

000
ASUS44 KCRP 230710
HRRCRP

SOUTH TEXAS REGIONAL WEATHER ROUNDUP
NATIONAL WEATHER SERVICE CORPUS CHRISTI TX
200 AM CDT SAT MAY 23 2015


TXZ229>244-230800-
...CORPUS CHRISTI AREA OBSERVATIONS...

CITY           SKY/WX    TMP DP  RH WIND       PRES   REMARKS
CORPUS CHRISTI MOCLDY    79  75  87 SE10      30.04S
NAS CORPUS CHR MOCLDY   N/A N/A N/A SE10      30.04S
ROCKPORT       MOCLDY    80  75  84 SE16      30.03S
KINGSVILLE NAS MOCLDY    79  78  97 SE7       30.03F
ALICE          MOCLDY    77  74  90 SE5       30.03S
FALFURRIAS     MOCLDY    77  74  92 SE6       30.02F
$$

...VICTORIA AREA OBSERVATIONS...

CITY           SKY/WX    TMP DP  RH WIND       PRES   REMARKS
VICTORIA       MOCLDY    74  74 100 E5        30.06S FOG
BEEVILLE       FAIR      75  75 100 E5        30.05S FOG
PLEASANTON     CLOUDY    76  73  89 SE8       30.05S
SAN ANTONIO    CLOUDY    76  73  91 SE9       30.07S
$$

...LAREDO AREA OBSERVATIONS...

CITY           SKY/WX    TMP DP  RH WIND       PRES   REMARKS
LAREDO         CLOUDY    78  73  84 SE9       30.03R
COTULLA        CLOUDY    78  74  87 SE13      30.02S
DEL RIO        CLOUDY    76  72  87 SE7       30.01S
MCALLEN        MOCLDY    79  75  87 SE8       30.02F
HEBBRONVILLE     N/A     76  73  91 SE13G20   30.03F
$$

...OTHER TEXAS OBSERVATIONS...

CITY           SKY/WX    TMP DP  RH WIND       PRES   REMARKS
BROWNSVILLE    PTCLDY    79  76  90 SE9       30.03S
HOUSTON        MOCLDY    74  72  93 E9        30.08F
COL. STATION   CLOUDY    72  69  90 SE9       30.07F
AUSTIN         CLOUDY    74  72  93 SE6       30.06S
WACO           CLOUDY    71  68  90 SE13      30.08S
FORT WORTH     CLOUDY    68  67  96 SE7       30.08S
WICHITA FALLS  LGT RAIN  60  60 100 E8        30.07F FOG
LUBBOCK        FOG       62  62 100 SE9       30.05S VSB 1/4
EL PASO        CLOUDY    76  18  11 W18G30    29.94S
$$

...MARINE OBSERVATIONS...

STATION/POSITION TIME  SKY/WX   TEMP    WIND        PRES    VSBY  WAVE   SWELL
                                AIR SEA DIR/SP/G                  HT/PER HT/PER
                 (UTC)          (F)     (DEG/KT/KT) (MB)    (MI)  (FT/S) (FT/S)
PORT ARANSAS     0700            80 81  130/ 18/ 19 1017.6F
BUOY 90 E PORT A 0650            80 80  130/ 16/ 17 1018.4F         3/ 6
BUOY 45 SE BAFFI 0650            81 80  130/ 16/ 21 1016.6F         4/ 6
BUOY 200 E PT IS 0650            81 81  120/ 16/ 17 1018.0S         3/ 6
BUOY 15 E GALVES 0650            79 80  110/ 16/ 17 1018.4F         3/ 4
$$



USA.gov is the U.S. government's official web portal to all federal, state and local government web resources and services.